Weather in Chekhov

Russia / Bryansk Oblast     52°26′00″N   31°36′30″E
temp.,
°C
wind,
m/s
gust,
m/s
humid.,
%
clouds,
%
prec.,
mm/h
press.,
hPa
HPBL,
m
16 june, wed
wed1600:00+16n35930 0.0 101392
03:00+14n35940 0.0 101385
06:00+14n379135 0.0 1014164
09:00+19n467565 0.0 1015491
12:00+22n456660 0.1 10151245
15:00+24nne456110 0.9 10151444
18:00+22nne36725 1.2 1015706
21:00+18nne37875 1.5 1017141
17 june, thu
thu1700:00+15ne38893 0.0 1018154
03:00+14ene38911 0.0 1019156
06:00+14ne37880 0.0 1021153
09:00+19ne57680 0.0 1022432
12:00+22ene57604 0.0 10231310
15:00+24ene55541 0.0 10221708
18:00+23ne46610 0.0 10221094
21:00+17ne34790 0.0 102348
18 june, fri
fri1800:00+15e35865 0.0 102583
03:00+13ene379238 0.0 1025118
06:00+14ene399216 0.0 1026228
09:00+20e58685 0.0 1026586
12:00+23e57535 0.0 10251241
15:00+24ene56512 0.0 10241447
18:00+23e46610 0.0 1024933
21:00+18ese35850 0.0 102484
19 june, sat
sat1900:00+15e37935 0.0 1025123
03:00+14e36950 0.0 1025109
06:00+15e37945 0.0 1026167
09:00+21e46707 0.0 1025571
12:00+24ese456032 0.0 10241361
15:00+24ese556484 0.1 10231297
18:00+24ese35667 0.1 10221151
21:00+19ese35844 0.1 102394
20 june, sun
sun2000:00+17ese37940 0.0 1023135
03:00+16ese35950 0.0 1023102
06:00+16e36930 0.0 1023149
09:00+22ese45706 0.0 1023578
12:00+25ese455616 0.0 10211137
15:00+26ese455381 0.0 10201362
18:00+25ese456340 0.0 1019964
21:00+20e358435 0.0 101999